This demonstration page uses our WeatherBlox Daily Observations layout. Learn more.

Left ArrowRight Arrow

39.12711, -84.51439

Hourly Observations for January 31, 2017

Temp ( °F °C ) Dew Point ( °F °C ) Humidity (%) Winds ( mph kmh ) Pressure ( in mb ) Visibility ( mi km ) Precip ( " mm )
12:53 am 00:53 Clear 31 -0.6 20 -6.7 64 64 SSW 7 11 29.73 1007 10 16 0.00 0.00
1:53 am 01:53 Clear 29 -1.7 22 -5.6 75 75 SW 7 11 29.70 1006 10 16 0.00 0.00
2:53 am 02:53 Clear 43 6.1 30 -1.1 60 60 SW 13 20 29.69 1006 10 16 0.00 0.00
3:53 am 03:53 Clear 42 5.6 31 -0.6 65 65 SW 13 20 29.69 1005 10 16 0.00 0.00
4:53 am 04:53 Clear 42 5.6 32 0 68 68 SW 13 20 29.70 1006 10 16 0.00 0.00
5:53 am 05:53 Clear 42 5.6 32 0 68 68 SW 10 17 29.70 1006 10 16 0.00 0.00
6:53 am 06:53 Cloudy 45 7.2 32 0 61 61 W 15 24 29.73 1007 10 16 0.00 0.00
7:53 am 07:53 Sunny 44 6.7 31 -0.6 60 60 W 20 31 29.77 1008 10 16 0.00 0.00
8:53 am 08:53 Partly Cloudy 43 6.1 31 -0.6 63 63 W 18 30 29.80 1009 10 16 0.00 0.00
9:53 am 09:53 Mostly Cloudy 44 6.7 32 0 63 63 WSW 15 24 29.83 1010 10 16 0.00 0.00
10:53 am 10:53 Mostly Cloudy 47 8.3 32 0 56 56 W 23 37 29.86 1011 10 16 0.00 0.00
11:53 am 11:53 Mostly Cloudy 47 8.3 32 0 56 56 W 15 24 29.86 1011 10 16 0.00 0.00
12:53 pm 12:53 Mostly Cloudy 49 9.4 32 0 52 52 WSW 15 24 29.86 1011 10 16 0.00 0.00
1:53 pm 13:53 Mostly Sunny 48 8.9 31 -0.6 52 52 W 20 31 29.85 1011 10 16 0.00 0.00
2:53 pm 14:53 Partly Cloudy 49 9.4 31 -0.6 50 50 W 14 22 29.85 1011 10 16 0.00 0.00
3:53 pm 15:53 Mostly Sunny 48 8.9 29 -1.7 48 48 WSW 20 31 29.88 1012 10 16 0.00 0.00
4:53 pm 16:53 Mostly Sunny 47 8.3 31 -0.6 54 54 WSW 12 19 29.91 1013 10 16 0.00 0.00
5:53 pm 17:53 Mostly Sunny 46 7.8 30 -1.1 54 54 WSW 15 24 29.95 1014 10 16 0.00 0.00
6:53 pm 18:53 Clear 44 6.7 30 -1.1 58 58 WSW 13 20 29.96 1015 10 16 0.00 0.00
7:53 pm 19:53 Mostly Clear 43 6.1 30 -1.1 60 60 WSW 6 9 29.98 1015 10 16 0.00 0.00
8:53 pm 20:53 Mostly Cloudy 43 6.1 31 -0.6 63 63 WSW 13 20 30.00 1016 10 16 0.00 0.00
9:53 pm 21:53 Cloudy 43 6.1 31 -0.6 63 63 WSW 8 13 29.99 1016 10 16 0.00 0.00
10:53 pm 22:53 Mostly Cloudy 42 5.6 32 0 68 68 SW 7 11 29.99 1016 10 16 0.00 0.00
11:53 pm 23:53 Cloudy 41 5 32 0 70 70 SW 6 9 30.01 1016 10 16 0.00 0.00

Powered by AerisWeather